Flag for Switzerland Weather past 2 weeks in Thônex, Geneva, Switzerland

Now
45 °F

Clear.


Feels Like: 45 °F
Forecast: 45 / 70 °F
Wind: 1 mph from North

Location: Geneva Cointrin Airport

Current Time: Apr 22, 2015 at 3:48:14 AM

Latest Report: Apr 22, 2015 at 2:50 AM


Visibility: 10 mi

Pressure: 30.30 "Hg

Humidity: 87%

Dew point: 41 °F

Location of ThônexLocation

Historic Weather in Thônex — Graph

°F

Thônex temperature yesterday

Maximum temperature yesterday: 68 °F (at 3:20 PM)
Minimum temperature yesterday: 41 °F (at 6:50 AM)
Average temperature yesterday: 56 °F

Past Weeks' High & Low Weather Summary

 TemperatureHumidityPressure
High73 °F (Apr 15, 4:20 PM)100% (Apr 12, 6:20 AM)30.48 "Hg (Apr 12, 6:20 AM)
Low30 °F (Apr 8, 6:20 AM)18% (Apr 8, 4:50 PM)29.95 "Hg (Apr 17, 4:50 AM)
Average54 °F58%30.24 "Hg
* Reported Apr 7 2:20 AM — Apr 22 2:20 AM, Thônex, Weather by CustomWeather, © 2015

Note: Actual official high and low records may vary slightly from our data, if they occured in-between our weather recording intervals... More about our weather records

Advertising

Thônex weather history for previous 24 hours

 ConditionsComfort  
Time TempWeatherWind HumidityBarometerVisibility
2:20 AM
Wed, Apr 22
46 °FClear.3 mph82%30.30 "Hg10 mi
1:50 AM48 °FClear.3 mph76%30.30 "Hg10 mi
1:20 AM48 °FClear.2 mph76%30.30 "Hg10 mi
12:50 AM50 °FClear.1 mph71%30.30 "Hg10 mi
12:20 AM50 °FClear.1 mph71%30.30 "Hg10 mi
11:50 PM
Tue, Apr 21
50 °FClear.2 mph76%30.30 "Hg10 mi
11:20 PM52 °FClear.1 mph72%30.30 "Hg10 mi
10:50 PM54 °FClear.2 mph67%30.30 "Hg10 mi
10:20 PM54 °FClear.1 mph67%30.30 "Hg10 mi
9:50 PM55 °FClear.No wind63%30.30 "Hg10 mi
9:20 PM57 °FSunny.1 mph59%30.27 "Hg10 mi
8:50 PM63 °FSunny.2 mph45%30.27 "Hg10 mi
8:20 PM64 °FSunny.6 mph40%30.27 "Hg10 mi
7:50 PM66 °FSunny.5 mph37%30.27 "Hg10 mi
7:20 PM68 °FPassing clouds.3 mph35%30.27 "HgN/A
6:50 PM68 °FPassing clouds.6 mph35%30.27 "HgN/A
6:20 PM68 °FPassing clouds.6 mph35%30.27 "HgN/A
5:50 PM68 °FPassing clouds.7 mph35%30.27 "HgN/A
5:20 PM68 °FPassing clouds.8 mph33%30.27 "HgN/A
4:50 PM68 °FPassing clouds.8 mph33%30.27 "HgN/A
4:20 PM68 °FPassing clouds.8 mph35%30.30 "HgN/A
3:50 PM68 °FPassing clouds.8 mph33%30.30 "HgN/A
3:20 PM68 °FPassing clouds.8 mph35%30.30 "HgN/A
2:50 PM66 °FPassing clouds.9 mph37%30.30 "HgN/A
2:20 PM64 °FPassing clouds.10 mph37%30.30 "HgN/A
1:50 PM64 °FPassing clouds.10 mph37%30.30 "HgN/A
1:20 PM64 °FPassing clouds.12 mph40%30.30 "HgN/A
12:50 PM63 °FPassing clouds.10 mph39%30.33 "HgN/A
12:20 PM63 °FPassing clouds.8 mph42%30.33 "HgN/A
11:50 AM59 °FPassing clouds.9 mph45%30.33 "HgN/A
11:20 AM59 °FPassing clouds.8 mph45%30.33 "HgN/A
10:50 AM57 °FSunny.10 mph51%30.33 "Hg10 mi
10:20 AM57 °FPassing clouds.7 mph48%30.30 "HgN/A
9:50 AM55 °FSunny.7 mph47%30.30 "Hg10 mi
9:20 AM54 °FPassing clouds.3 mph54%30.30 "HgN/A
8:50 AM54 °FSunny.3 mph54%30.30 "Hg10 mi
8:20 AM48 °FSunny.1 mph76%30.30 "Hg10 mi
7:50 AM43 °FSunny.2 mph81%30.30 "Hg10 mi
7:20 AM41 °FClear.1 mph87%30.27 "Hg10 mi
6:50 AM41 °FClear.2 mph87%30.27 "Hg10 mi
5:50 AM43 °FClear.1 mph81%30.24 "Hg10 mi
5:20 AM43 °FClear.2 mph81%30.24 "Hg10 mi
4:50 AM43 °FClear.2 mph81%30.24 "Hg10 mi
4:20 AM43 °FClear.6 mph81%30.24 "Hg10 mi
3:50 AM45 °FClear.2 mph76%30.24 "Hg10 mi
Weather by CustomWeather, © 2015

See weather overviewHow to use our weather pages